Location: Catstown
(52.4386°N, 7.2633°W)
Time: 05:12:31
(UTC+00:00)

ATLAS 2AS CENTAUR R/B - Pass Details

Date: 18 September 2020
Orbit: 939 x 1273 km, 63.7° (Epoch: 19 October)

Event Time Altitude Azimuth Distance (km) Brightness Sun altitude
Rises 22:51:49 0° 231° (SW) 4,216 5.7 -32.9°
Enters shadow 22:52:41 - 232° (SW) 3,923 5.5 -32.9°
Exits shadow 22:59:05 37° 241° (WSW) 1,868 3.8 -33.4°
Maximum altitude 23:02:37 76° 319° (NW) 1,306 3.1 -33.6°
Drops below altitude 10° 23:10:26 10° 46° (NE) 3,194 5.4 -34.1°
Sets 23:13:10 0° 48° (NE) 4,126 6.0 -34.2°
